EJU45FT LFPO-LGRP

Flight info

Callsign EJU45FT
Flight time N/A
Altitude 35000
Route BUBLI2H BUBLI DCT LUVAL DCT BEGAR DCT TRA DCT GAMSA DCT GEDSO DCT VEKEN DCT NEMEK DCT NAVSU/N0448F370 DCT SOLGU DCT RUDAR DCT OSLUD DCT BUNEX DCT MODRA DCT MEDUX UM867 KOGAT DCT ERANA DCT TSL DCT MES UN139 LURUS UL995 CODIC CODIC1K
Aircraft A320/M-SDE3FGHIRWY/LB1

Departure

Time N/A
Airport Paris-Orly Airport (LFPO)

Arrival

Time 2026-05-07 18:08
Airport Rhodes International Airport "Diagoras" (LGRP)
Time Latitude Longitude Altitude Speed Heading
2026-05-07 17:35 38.35393 25.77660 37152 ft 542 kts 137°
2026-05-07 17:35 38.32718 25.81043 37155 ft 542 kts 137°
2026-05-07 17:35 38.27241 25.87625 37149 ft 539 kts 145°
2026-05-07 17:36 38.20881 25.92446 37148 ft 528 kts 163°
2026-05-07 17:36 38.14041 25.95660 37143 ft 525 kts 166°
2026-05-07 17:37 38.07163 25.98804 37135 ft 526 kts 166°
2026-05-07 17:37 38.00271 26.01935 37126 ft 527 kts 167°
2026-05-07 17:38 37.93357 26.05061 37120 ft 528 kts 167°
2026-05-07 17:38 37.86435 26.08195 37117 ft 529 kts 166°
2026-05-07 17:39 37.79488 26.11334 37120 ft 531 kts 166°
2026-05-07 17:39 37.72528 26.14476 37121 ft 532 kts 167°
2026-05-07 17:40 37.65597 26.17589 37120 ft 533 kts 167°
2026-05-07 17:40 37.58562 26.20736 37125 ft 534 kts 167°
2026-05-07 17:41 37.51542 26.23883 37124 ft 535 kts 166°
2026-05-07 17:41 37.44539 26.27020 37126 ft 535 kts 166°
2026-05-07 17:42 37.37554 26.30137 37128 ft 535 kts 167°
2026-05-07 17:42 37.30529 26.33252 37129 ft 536 kts 167°
2026-05-07 17:43 37.23446 26.36396 37127 ft 536 kts 166°
2026-05-07 17:43 37.16402 26.39520 37133 ft 538 kts 166°
2026-05-07 17:44 37.09346 26.42653 37135 ft 539 kts 166°
2026-05-07 17:44 37.02274 26.45789 37135 ft 539 kts 166°
2026-05-07 17:45 36.95315 26.49338 37129 ft 547 kts 153°
2026-05-07 17:45 36.92129 26.51990 37133 ft 551 kts 142°
2026-05-07 17:45 36.89310 26.55229 37136 ft 551 kts 131°
2026-05-07 17:46 36.85600 26.61717 37142 ft 546 kts 114°
2026-05-07 17:46 36.82530 26.70316 37149 ft 542 kts 108°
2026-05-07 17:47 36.79528 26.79030 37163 ft 542 kts 108°
2026-05-07 17:47 36.76547 26.87658 37182 ft 542 kts 109°
2026-05-07 17:48 36.73559 26.96292 37190 ft 541 kts 109°
2026-05-07 17:48 36.70557 27.04953 37193 ft 540 kts 109°
2026-05-07 17:49 36.67547 27.13586 37193 ft 539 kts 109°
2026-05-07 17:49 36.64553 27.22147 37187 ft 538 kts 109°
2026-05-07 17:50 36.61555 27.30681 37185 ft 537 kts 109°
2026-05-07 17:50 36.58571 27.39191 36664 ft 535 kts 110°
2026-05-07 17:51 36.57081 27.43433 35956 ft 534 kts 110°
2026-05-07 17:51 36.55594 27.47648 35371 ft 531 kts 111°
2026-05-07 17:51 36.54110 27.51840 35161 ft 531 kts 111°
2026-05-07 17:51 36.52625 27.56032 34773 ft 528 kts 111°
2026-05-07 17:52 36.51117 27.60286 33037 ft 534 kts 111°
2026-05-07 17:52 36.49613 27.64528 31198 ft 537 kts 111°
2026-05-07 17:52 36.48105 27.68767 29738 ft 531 kts 111°
2026-05-07 17:52 36.46769 27.72982 28934 ft 518 kts 103°
2026-05-07 17:53 36.46014 27.77262 28555 ft 511 kts 96°
2026-05-07 17:53 36.45429 27.81649 27492 ft 506 kts 96°
2026-05-07 17:53 36.44847 27.85982 25269 ft 509 kts 98°
2026-05-07 17:53 36.43976 27.90228 23644 ft 504 kts 110°
2026-05-07 17:54 36.42529 27.94046 22279 ft 488 kts 120°
2026-05-07 17:54 36.40622 27.97471 20873 ft 477 kts 127°
2026-05-07 17:54 36.38642 28.00730 19495 ft 470 kts 127°
2026-05-07 17:54 36.36671 28.03935 18180 ft 463 kts 127°
2026-05-07 17:55 36.34722 28.07075 16810 ft 455 kts 127°
2026-05-07 17:55 36.32815 28.10164 15570 ft 446 kts 126°
2026-05-07 17:55 36.30992 28.13225 14394 ft 437 kts 125°
2026-05-07 17:55 36.29211 28.16300 13158 ft 428 kts 124°
2026-05-07 17:56 36.27536 28.19238 11981 ft 418 kts 124°
2026-05-07 17:56 36.25866 28.22173 10805 ft 408 kts 124°
2026-05-07 17:56 36.24298 28.25059 9601 ft 396 kts 121°
2026-05-07 17:56 36.22802 28.27877 8441 ft 386 kts 122°
2026-05-07 17:57 36.21369 28.30532 8066 ft 355 kts 121°
2026-05-07 17:57 36.20661 28.32270 7914 ft 332 kts 107°
2026-05-07 17:57 36.20489 28.35778 7734 ft 287 kts 73°
2026-05-07 17:57 36.21310 28.37874 7607 ft 259 kts 49°
2026-05-07 17:58 36.22625 28.39302 7484 ft 250 kts 28°
2026-05-07 17:58 36.24249 28.40023 7365 ft 248 kts
2026-05-07 17:58 36.25967 28.39951 7242 ft 248 kts 347°
2026-05-07 17:58 36.27544 28.39090 7096 ft 251 kts 326°
2026-05-07 17:59 36.28766 28.37555 6856 ft 253 kts 306°
2026-05-07 17:59 36.29796 28.35799 6614 ft 251 kts 317°
2026-05-07 17:59 36.31211 28.34648 6362 ft 246 kts 343°
2026-05-07 17:59 36.32883 28.34340 6116 ft 243 kts 359°
2026-05-07 18:00 36.34558 28.34126 5866 ft 240 kts 353°
2026-05-07 18:00 36.36170 28.33837 5608 ft 226 kts 352°
2026-05-07 18:00 36.37678 28.33564 5360 ft 213 kts 352°
2026-05-07 18:00 36.39109 28.33307 5114 ft 202 kts 352°
2026-05-07 18:01 36.40460 28.33072 5010 ft 194 kts 352°
2026-05-07 18:01 36.41796 28.32841 5014 ft 194 kts 352°
2026-05-07 18:01 36.43105 28.32489 4995 ft 193 kts 333°
2026-05-07 18:01 36.44064 28.31338 5005 ft 197 kts 299°
2026-05-07 18:02 36.44417 28.27869 4164 ft 210 kts 273°
2026-05-07 18:02 36.44490 28.26050 3689 ft 209 kts 286°
2026-05-07 18:02 36.45191 28.24587 3440 ft 194 kts 323°
2026-05-07 18:03 36.46424 28.24021 3187 ft 193 kts
2026-05-07 18:03 36.47683 28.24557 2938 ft 197 kts 38°
2026-05-07 18:03 36.48420 28.25992 2697 ft 203 kts 76°
2026-05-07 18:03 36.48298 28.27721 2487 ft 206 kts 115°
2026-05-07 18:04 36.47345 28.29031 2376 ft 207 kts 154°
2026-05-07 18:04 36.45970 28.29373 2246 ft 203 kts 192°
2026-05-07 18:04 36.44730 28.28650 2131 ft 196 kts 229°
2026-05-07 18:04 36.44103 28.27202 2046 ft 191 kts 264°
2026-05-07 18:05 36.44284 28.25614 2030 ft 188 kts 287°
2026-05-07 18:05 36.44521 28.24010 2008 ft 190 kts 275°
2026-05-07 18:05 36.44408 28.22375 1945 ft 193 kts 260°
2026-05-07 18:05 36.44049 28.20766 1760 ft 190 kts 254°
2026-05-07 18:06 36.43637 28.19269 1521 ft 177 kts 253°
2026-05-07 18:06 36.43240 28.17889 1286 ft 167 kts 252°
2026-05-07 18:06 36.42854 28.16560 1073 ft 162 kts 252°
2026-05-07 18:06 36.42479 28.15273 878 ft 152 kts 252°
2026-05-07 18:07 36.42133 28.14089 683 ft 140 kts 250°
2026-05-07 18:07 36.41810 28.12982 491 ft 134 kts 249°
2026-05-07 18:07 36.41496 28.11893 323 ft 134 kts 250°
2026-05-07 18:07 36.41185 28.10819 135 ft 131 kts 250°
2026-05-07 18:08 36.40876 28.09775 27 ft 120 kts 249°
2026-05-07 18:08 36.40640 28.08979 27 ft 74 kts 250°
2026-05-07 18:08 36.40524 28.08583 24 ft 26 kts 250°
2026-05-07 18:08 36.40460 28.08367 28 ft 31 kts 250°
2026-05-07 18:09 36.40379 28.08091 28 ft 29 kts 249°
2026-05-07 18:09 36.40259 28.07936 26 ft 14 kts 220°
2026-05-07 18:09 36.40176 28.07856 25 ft 15 kts 195°
2026-05-07 18:09 36.40153 28.07945 30 ft 13 kts 75°
2026-05-07 18:10 36.40189 28.08067 27 ft 17 kts 68°
2026-05-07 18:10 36.40241 28.08240 27 ft 24 kts 70°
2026-05-07 18:10 36.40300 28.08440 28 ft 25 kts 70°
2026-05-07 18:10 36.40362 28.08651 28 ft 27 kts 69°
2026-05-07 18:11 36.40400 28.08857 29 ft 24 kts 95°
2026-05-07 18:11 36.40395 28.08954 29 ft 8 kts 89°
2026-05-07 18:11 36.40358 28.09014 29 ft 8 kts 161°
2026-05-07 18:11 36.40335 28.09025 29 ft 0 kts 160°